Location: Newark
(14.6670°N, 74.3000°E)
Time: 00:01:58
(UTC+00:00)

N. Korean satellite - Visible Passes

Search period start: 23 October 2019 00:00
Search period end: 02 November 2019 00:00
Orbit: 455 x 508 km, 97.2° (Epoch: 22 October)

Date Brightness Start Highest point End Pass type
(mag) Time Alt. Az. Time Alt. Az. Time Alt. Az.
23 Oct 7.5 00:31:29 10° NNE 00:35:06 57° E 00:38:45 10° S visible
24 Oct 9.5 00:06:54 10° NE 00:09:50 22° E 00:12:46 10° SSE visible
25 Oct 9.9 13:10:30 10° SW 13:12:44 16° W 13:14:57 10° WNW visible
27 Oct 8.2 00:23:45 10° NNE 00:27:16 42° E 00:30:48 10° S visible
27 Oct 10.0 23:59:28 10° NE 00:01:58 17° E 00:04:28 10° SE visible
29 Oct 9.5 13:02:07 10° SSW 13:04:48 22° W 13:07:31 10° NW visible
31 Oct 8.8 00:16:03 10° NE 00:19:24 32° E 00:22:43 10° SSE visible
31 Oct 10.2 23:52:14 10° ENE 23:54:04 13° E 23:55:54 10° SE visible
01 Nov 10.3 13:20:59 10° WSW 13:22:11 12° W 13:23:25 10° WNW visible
